FW0270 Weather Reports


Display with metric or nautical units.
time (UTC)temp
F
wind
direction
speed
MPH
gust
MPH
rain 1hr
in
rain 24hr
in
rain mn
in
humidity
%
barometer
mb
20260502221559 62 282 1.0 7.0 0.00 0.00 0.00 34 1017.6
20260502220059 61 299 3.0 11.0 0.00 0.00 0.00 33 1017.8
20260502214612 61 180 2.0 9.0 0.00 0.00 0.00 33 1017.9
20260502213106 62 303 2.0 10.0 0.00 0.00 0.00 31 1018.1
20260502211552 61 287 0.0 10.0 0.00 0.00 0.00 34 1018.2
20260502210045 61 267 2.0 13.0 0.00 0.00 0.00 36 1018.6
20260502204542 61 228 1.0 7.0 0.00 0.00 0.00 31 1018.6
20260502203104 61 312 3.0 9.0 0.00 0.00 0.00 34 1018.9
20260502201541 60 232 1.0 4.0 0.00 0.00 0.00 34 1019.1
20260502200041 60 310 2.0 10.0 0.00 0.00 0.00 37 1019.4
20260502194533 60 256 3.0 8.0 0.00 0.00 0.00 35 1019.7
20260502193032 60 255 0.0 6.0 0.00 0.00 0.00 37 1019.7
20260502191534 60 233 4.0 12.0 0.00 0.00 0.00 34 1020.0
20260502190027 59 291 2.0 6.0 0.00 0.00 0.00 36 1019.9
20260502184526 59 225 0.0 8.0 0.00 0.00 0.00 38 1020.2
20260502183023 59 311 2.0 6.0 0.00 0.00 0.00 36 1020.6
20260502181520 58 203 4.0 11.0 0.00 0.00 0.00 34 1020.6
20260502180122 58 299 1.0 7.0 0.00 0.00 0.00 37 1020.7
20260502163026 56 303 3.0 6.0 0.00 0.00 0.00 38 1021.6
20260502161518 55 124 0.0 6.0 0.00 0.00 0.00 45 1021.7
20260502151559 53 28 2.0 7.0 0.00 0.00 0.00 50 1022.0
20260502123020 31 26 0.0 1.0 0.00 0.01 0.00 96 1022.5
20260502121515 28 26 0.0 0.0 0.00 0.01 0.00 95 1022.5
20260502114511 26 26 0.0 0.0 0.00 0.01 0.00 94 1022.1
20260502113010 25 26 0.0 0.0 0.00 0.01 0.00 93 1022.0
20260502111509 25 26 0.0 0.0 0.00 0.01 0.00 93 1021.8
20260502110007 25 26 0.0 0.0 0.00 0.01 0.00 93 1021.8
20260502104513 26 26 0.0 0.0 0.00 0.02 0.00 93 1021.6
20260502103005 25 26 0.0 0.0 0.00 0.02 0.00 92 1021.5
20260502101510 25 26 0.0 0.0 0.00 0.02 0.00 92 1021.5
20260502090105 26 26 0.0 0.0 0.00 0.02 0.00 91 1021.5
20260502080109 28 26 0.0 0.0 0.00 0.02 0.00 91 1021.4
20260502070101 28 26 0.0 0.0 0.00 0.02 0.00 88 1021.5
20260502064550 29 26 0.0 0.0 0.00 0.02 0.00 87 1021.5
20260502063041 29 26 0.0 0.0 0.00 0.02 0.00 87 1021.4
20260502061540 30 26 0.0 0.0 0.00 0.02 0.00 87 1021.7
20260502060039 30 26 0.0 0.0 0.00 0.02 0.00 87 1021.6
20260502054537 30 26 0.0 0.0 0.00 0.02 0.00 83 1021.4
20260502053035 31 26 0.0 0.0 0.00 0.02 0.00 82 1021.3
20260502051536 32 26 0.0 0.0 0.00 0.02 0.00 81 1021.2
20260502050030 33 26 0.0 0.0 0.00 0.02 0.00 80 1021.2
20260502044526 33 26 0.0 0.0 0.00 0.02 0.02 78 1021.1
20260502043030 34 26 0.0 0.0 0.00 0.02 0.02 78 1020.8
20260502041525 34 26 0.0 0.0 0.00 0.02 0.02 75 1021.0
20260502040023 36 26 0.0 0.0 0.00 0.02 0.02 74 1020.8
20260502034522 37 26 0.0 0.0 0.00 0.02 0.02 71 1020.8
20260502033023 39 26 0.0 1.0 0.00 0.02 0.02 65 1020.7
20260502031519 40 24 0.0 1.0 0.00 0.02 0.02 64 1020.7
20260502030019 40 8 0.0 1.0 0.00 0.02 0.02 64 1020.6
20260502024524 41 8 0.0 1.0 0.00 0.02 0.02 63 1020.3
20260502023017 41 8 0.0 2.0 0.00 0.02 0.02 61 1020.0
20260502021516 42 8 0.0 2.0 0.00 0.02 0.02 61 1019.8
20260502020014 43 8 0.0 1.0 0.00 0.02 0.02 59 1019.6
20260502014512 45 8 0.0 1.0 0.00 0.02 0.02 56 1019.4
20260502013013 47 8 0.0 3.0 0.00 0.02 0.02 51 1019.2
20260502011509 48 146 0.0 1.0 0.00 0.02 0.02 50 1019.0
20260502010019 50 18 0.0 2.0 0.00 0.02 0.02 46 1018.8
20260502004512 51 23 0.0 5.0 0.00 0.02 0.02 44 1018.6
20260502003007 52 11 1.0 5.0 0.00 0.02 0.02 44 1018.7
20260502001509 52 355 3.0 9.0 0.00 0.02 0.02 43 1018.5
20260502000010 52 8 2.0 6.0 0.00 0.02 0.02 44 1018.4
20260501234506 52 32 2.0 7.0 0.00 0.02 0.02 44 1018.3
20260501233005 52 10 2.0 7.0 0.00 0.02 0.02 44 1018.2
20260501231505 53 24 1.0 6.0 0.00 0.02 0.02 42 1018.2
20260501230005 53 28 4.0 8.0 0.00 0.02 0.02 42 1018.2
20260501224505 55 8 3.0 11.0 0.00 0.02 0.02 42 1018.1
20260501223003 54 23 1.0 4.0 0.00 0.02 0.02 46 1018.1